Park Rapids, MN

1:26 PM CST on December 08, 2016 (GMT -0600)
Park Rapids Municipal

Weather History for KPKD - May, 2009

Change the Weather History Date:

Wednesday, May 13, 2009

  Actual Average Record
Temperature  
Mean Temperature 55 °F -  
Max Temperature 68 °F 65 °F 88 °F (1977)
Min Temperature 39 °F 37 °F 23 °F (1953)
Degree Days  
Heating Degree Days 10    
Growing Degree Days 5 (Base 50)    
Moisture  
Dew Point 46 °F    
Average Humidity 76    
Maximum Humidity 97    
Minimum Humidity 33    
Precipitation  
Precipitation 0.60 in - - ()
Sea Level Pressure  
Sea Level Pressure 29.49 in    
Wind  
Wind Speed 19 mph (West)    
Max Wind Speed 28 mph    
Max Gust Speed 36 mph    
Visibility 10 miles    
Events Rain , Thunderstorm    
Averages and records for this station are not official NWS values.
T = Trace of Precipitation, MM = Missing Value Source: NWS Daily Summary

Daily Weather History Graph

Daily Weather History Graph

Search for Another Location

Airport or City:

Trip Planner

Search our weather history database for the weather conditions in past years. The results will help you decide how hot, cold, wet, or windy it might be!

Date:

Astronomy

May. 13, 2009 Rise Set
Actual Time 5:47 AM CDT 8:46 PM CDT
Civil Twilight 5:11 AM CDT 9:22 PM CDT
Nautical Twilight 4:25 AM CDT 10:08 PM CDT
Astronomical Twilight 3:30 AM CDT 11:04 PM CDT
Moon 12:33 AM CDT (5/13) 8:50 AM CDT (5/13)
Length of Visible Light 16h 10m
Length of Day
14h 59m
Waning Gibbous, 82% of the Moon is Illuminated
May 13
Waning Gibbous
May 17
Last Quarter
May 24
New
May 30
First Quarter
Jun 7
Full

Hourly Weather History & Observations

Time (CDT) Temp. Windchill Dew Point Humidity Pressure Visibility Wind Dir Wind Speed Gust Speed Precip Events Conditions
12:31 AM 55.4 °F - 53.6 °F 94% 29.49 in 4.0 mi South 20.7 mph 31.1 mph N/A Rain Light Rain
12:53 AM 55.0 °F - 54.0 °F 96% 29.49 in 10.0 mi South 17.3 mph 24.2 mph 0.08 in   Overcast
1:33 AM 55.4 °F - 53.6 °F 94% 29.47 in 10.0 mi SSW 18.4 mph 27.6 mph 0.02 in Rain Light Rain
1:53 AM 55.0 °F - 54.0 °F 96% 29.49 in 10.0 mi South 20.7 mph - 0.03 in Rain Light Rain
2:53 AM 55.9 °F - 54.0 °F 93% 29.45 in 10.0 mi North - - 0.09 in Rain Light Rain
3:53 AM 55.9 °F - 54.0 °F 93% 29.40 in 10.0 mi North - - 0.05 in   Overcast
4:53 AM 55.9 °F - 55.0 °F 97% 29.39 in 10.0 mi North - - 0.01 in   Overcast
5:53 AM 57.0 °F - 55.0 °F 93% 29.39 in 10.0 mi North - - N/A   Overcast
6:05 AM 57.2 °F - 55.4 °F 94% 29.38 in 10.0 mi North - - N/A   Overcast
6:12 AM 57.2 °F - 55.4 °F 94% 29.39 in 10.0 mi North - - N/A   Overcast
6:53 AM 55.9 °F - 50.0 °F 80% 29.42 in 10.0 mi North - - N/A   Overcast
7:53 AM 55.0 °F - 48.0 °F 77% 29.44 in 10.0 mi North - - N/A   Clear
8:53 AM 57.9 °F - 48.0 °F 70% 29.45 in 10.0 mi West 17.3 mph 24.2 mph N/A   Unknown
9:53 AM 60.1 °F - 46.0 °F 60% 29.44 in 10.0 mi West 18.4 mph 25.3 mph N/A   Clear
10:53 AM 63.0 °F - 45.0 °F 52% 29.45 in 10.0 mi West 23.0 mph 29.9 mph N/A   Clear
11:53 AM 64.9 °F - 46.0 °F 50% 29.45 in 10.0 mi WSW 17.3 mph - N/A   Clear
12:53 PM 66.0 °F - 46.0 °F 48% 29.45 in 10.0 mi WSW 18.4 mph 29.9 mph N/A   Clear
1:53 PM 66.9 °F - 41.0 °F 39% 29.45 in 10.0 mi West 20.7 mph 34.5 mph N/A   Partly Cloudy
2:53 PM 64.9 °F - 39.9 °F 40% 29.46 in 10.0 mi WNW 24.2 mph 35.7 mph N/A   Scattered Clouds
3:53 PM 64.0 °F - 37.9 °F 38% 29.48 in 10.0 mi NW 24.2 mph 31.1 mph N/A   Mostly Cloudy
4:53 PM 64.9 °F - 35.1 °F 33% 29.48 in 10.0 mi WNW 20.7 mph 32.2 mph N/A   Partly Cloudy
5:53 PM 59.0 °F - 39.0 °F 48% 29.51 in 10.0 mi West 17.3 mph 24.2 mph 0.00 in Rain Light Rain
6:53 PM 55.9 °F - 37.9 °F 51% 29.52 in 10.0 mi SW 20.7 mph 27.6 mph 0.00 in   Partly Cloudy
7:27 PM 51.8 °F - 39.2 °F 62% 29.52 in 10.0 mi WSW 27.6 mph 33.4 mph 0.00 in Rain , Thunderstorm Light Rain
7:40 PM 50.0 °F - 39.2 °F 66% 29.52 in 10.0 mi WSW 23.0 mph 32.2 mph 0.00 in Rain , Thunderstorm Light Rain
7:53 PM 48.0 °F - 39.9 °F 74% 29.56 in 6.0 mi WSW 18.4 mph 29.9 mph 0.07 in Rain , Thunderstorm Thunderstorms and Rain
8:50 PM 44.6 °F 39.7 °F 42.8 °F 93% 29.56 in 10.0 mi WSW 9.2 mph - 0.23 in Rain Light Rain
8:53 PM 45.0 °F 39.7 °F 42.1 °F 90% 29.57 in 10.0 mi WSW 10.4 mph 16.1 mph 0.23 in Rain Light Rain
9:02 PM 46.4 °F 41.9 °F 42.8 °F 87% 29.55 in 10.0 mi West 9.2 mph - 0.00 in   Overcast
9:13 PM 46.4 °F 43.5 °F 42.8 °F 87% 29.56 in 10.0 mi WNW 5.8 mph - 0.00 in   Overcast
9:53 PM 46.9 °F - 44.1 °F 90% 29.59 in 8.0 mi NW 16.1 mph - 0.02 in Rain Light Rain
10:11 PM 46.4 °F 39.5 °F 44.6 °F 93% 29.58 in 10.0 mi NW 17.3 mph - 0.00 in Rain Light Rain
10:40 PM 46.4 °F 39.8 °F 44.6 °F 93% 29.58 in 6.0 mi NNW 16.1 mph - 0.01 in Rain Light Rain
10:53 PM 46.0 °F 38.0 °F 43.0 °F 89% 29.60 in 10.0 mi NW 21.9 mph 31.1 mph 0.01 in Rain Light Rain
11:53 PM 39.0 °F 29.0 °F 36.0 °F 89% 29.66 in 10.0 mi NNW 20.7 mph 29.9 mph 0.01 in   Overcast